Location: Newark
(23.1505°N, 82.3567°W)
Time: 13:29:47
(UTC+00:00)

Envisat - Visible Passes

Search period start: 23 January 2020 00:00
Search period end: 02 February 2020 00:00
Orbit: 764 x 766 km, 98.1° (Epoch: 23 January)

Date Brightness Start Highest point End Pass type
(mag) Time Alt. Az. Time Alt. Az. Time Alt. Az.
23 Jan 5.1 00:15:58 10° SSW 00:20:21 30° W 00:24:46 10° NW visible
23 Jan 6.1 10:56:56 10° ENE 10:59:49 15° E 11:02:40 10° SE visible
23 Jan 3.2 23:38:30 10° S 23:43:35 80° W 23:48:39 10° NNW visible
25 Jan 6.1 00:43:04 10° SW 00:45:55 15° W 00:48:48 10° WNW visible
25 Jan 5.2 11:20:58 10° NE 11:25:23 30° E 11:29:47 10° SSE visible
26 Jan 4.5 00:04:19 10° SSW 00:09:03 40° W 00:13:48 10° NNW visible
26 Jan 6.5 10:47:11 10° E 10:48:28 11° E 10:49:45 10° ESE visible
27 Jan 3.8 11:45:53 10° NNE 11:50:53 60° E 11:55:53 10° S visible
28 Jan 5.7 00:30:54 10° SW 00:34:36 20° W 00:38:18 10° NW visible
28 Jan 5.7 11:10:08 10° NE 11:14:04 23° E 11:17:59 10° SSE visible
28 Jan 3.9 23:52:49 10° S 23:57:45 53° W 00:02:42 10° NNW visible
30 Jan 4.4 11:34:45 10° NNE 11:39:36 44° E 11:44:25 10° S visible
31 Jan 5.3 00:19:02 10° SSW 00:23:16 27° W 00:27:31 10° NW visible
31 Jan 6.1 10:59:30 10° ENE 11:02:44 17° E 11:05:57 10° SE visible
31 Jan 3.4 23:41:25 10° S 23:46:28 72° W 23:51:31 10° NNW visible
